Vorticity
4 2 3 4 7 6 5 6 5 8 9 8 7 8 10 7 8 5 5 8 8 9 7 7 4 -0 3 7 11 11 7 9 11 5 -3 -5 4 7 3 2 4 5 5 9 8 10 7 5 7 6 8 6 5 9 7 8 8 5 5 6 8 6 5 5 4 5 6 5 5 4 3 3 4 4 4 4 4 4 4 4 4 5 4 4 4 4 5 6 7 6 5 6 6 5 4 4 2
2 4 6 5 9 9 4 4 9 10 7 8 8 10 10 4 5 5 5 8 8 5 3 2 -0 -1 3 7 11 14 10 8 7 1 -1 2 9 6 6 6 4 6 8 11 11 9 7 8 9 8 10 9 8 9 8 7 6 5 4 5 6 4 5 5 5 5 5 5 4 3 4 4 5 4 4 4 4 4 4 4 5 5 5 4 4 4 4 4 6 7 6 6 7 6 5 3 2
5 6 6 3 6 8 5 4 1 1 7 8 3 6 10 7 6 6 9 10 8 5 4 5 4 7 11 10 9 10 9 6 3 4 6 6 5 5 8 8 5 7 8 10 9 8 8 8 9 8 8 9 8 8 7 5 5 5 3 4 6 5 6 5 5 4 4 4 3 4 5 5 4 4 4 4 5 5 5 6 5 6 5 5 5 5 4 4 4 6 7 7 7 6 5 3 2
7 4 3 -1 6 9 1 7 6 -4 2 10 5 5 9 11 8 7 9 10 10 9 9 11 11 12 11 9 6 3 5 5 4 5 4 5 4 7 10 8 6 5 6 8 7 8 8 7 9 7 7 6 6 6 4 4 3 3 3 5 7 6 5 4 4 4 4 4 4 6 5 5 5 4 4 4 5 5 6 5 5 5 5 5 5 5 5 6 5 5 5 6 8 8 6 4 3
7 4 5 -1 7 12 0 6 9 -2 -0 12 11 5 6 8 6 7 8 7 8 11 12 9 7 7 6 6 7 4 4 5 6 4 1 5 7 7 7 6 6 5 7 9 6 6 6 7 7 5 6 4 4 4 3 3 3 4 6 6 7 6 4 4 5 5 5 5 5 6 5 6 5 4 4 4 5 5 4 4 4 3 3 3 3 4 4 5 6 6 6 5 6 8 8 6 5
8 6 5 1 7 11 7 8 5 6 10 10 12 5 5 5 3 6 4 5 4 6 7 1 0 3 6 8 8 6 6 6 6 5 1 4 6 5 4 6 9 6 6 7 6 6 5 5 6 5 4 2 2 3 4 5 5 6 6 6 6 5 4 5 6 6 6 5 6 5 6 6 5 5 4 4 4 3 3 2 3 2 3 3 2 3 3 4 5 5 6 7 6 5 7 8 7
5 5 3 0 8 7 0 4 -1 3 8 4 9 5 3 4 2 6 4 5 3 2 3 1 3 5 7 8 8 8 7 8 7 5 2 3 5 5 5 6 8 6 5 6 5 4 4 3 4 5 4 3 3 5 5 5 6 6 6 6 6 5 6 7 6 6 6 6 6 6 6 7 6 5 4 4 3 3 3 3 3 4 5 5 5 4 4 4 4 5 4 6 8 7 6 7 8
-1 -2 0 -3 2 7 -6 1 7 2 5 3 7 5 3 4 1 5 5 6 4 4 5 3 5 7 8 6 5 9 8 8 8 6 4 3 4 4 3 4 5 4 4 5 4 3 4 4 4 5 5 4 4 5 4 5 6 6 6 6 6 7 7 6 6 6 7 7 6 6 6 6 6 5 4 4 4 4 4 4 5 6 7 7 8 9 9 8 7 7 5 5 6 8 9 7 7
4 1 9 10 7 18 3 -1 10 2 5 6 6 7 5 5 3 5 4 4 4 4 6 4 7 8 7 4 5 9 7 7 10 8 4 3 4 2 2 5 5 5 5 6 6 4 4 4 4 6 6 4 6 5 3 5 6 6 6 6 7 6 7 7 7 7 7 7 7 6 6 6 6 6 6 6 7 8 6 6 7 6 6 5 7 12 15 15 11 8 7 7 5 6 9 11 10
1 -7 1 10 12 22 6 -2 8 3 5 7 5 7 7 6 6 8 7 5 5 4 4 3 5 6 3 4 7 7 4 4 7 7 4 5 4 3 4 6 6 4 6 6 5 4 4 4 4 6 7 5 5 4 5 6 6 8 8 7 8 7 8 7 8 8 8 8 8 7 7 8 9 9 9 11 12 12 9 7 6 5 4 5 9 12 12 13 11 8 10 9 7 6 6 8 11
-1 -1 -3 -3 4 4 -3 2 9 5 3 5 5 5 6 6 6 6 7 8 7 4 2 2 4 4 3 3 6 6 5 5 4 4 4 4 3 4 5 4 4 5 4 3 3 4 4 5 6 7 7 7 6 5 7 8 8 10 9 8 8 8 8 8 9 9 9 8 8 9 9 9 9 9 8 9 11 11 9 6 6 6 6 8 11 11 8 10 11 11 11 10 9 8 6 5 6
3 12 5 -5 0 -0 7 6 4 13 6 3 6 5 6 5 6 5 5 5 6 8 5 5 5 4 4 3 6 6 5 6 4 4 4 5 4 3 3 3 4 4 3 3 5 5 4 6 8 8 8 8 7 9 10 9 10 10 8 7 8 9 9 9 10 11 10 7 7 8 7 6 5 4 6 7 7 7 7 7 8 8 9 11 11 12 9 9 11 11 8 7 10 10 8 7 5
-4 -2 1 -3 -3 -4 9 2 1 20 9 5 8 6 7 6 7 5 5 4 6 12 8 8 4 3 5 4 7 6 3 4 4 4 4 5 5 3 3 4 3 2 2 5 6 5 5 7 8 9 9 10 10 10 10 11 11 8 5 6 9 10 10 9 10 12 10 7 6 6 5 5 4 6 7 8 7 7 7 8 8 6 9 12 13 13 12 11 9 8 4 4 9 8 8 10 9
-1 -1 3 -1 1 -2 5 6 6 9 1 9 8 6 9 6 8 5 5 8 10 9 5 8 6 5 6 5 7 7 6 6 5 4 4 4 4 4 3 3 2 3 3 5 6 5 7 8 9 10 11 11 11 9 8 9 9 6 5 7 10 9 9 8 9 10 9 8 7 6 6 6 8 9 9 9 8 8 7 5 4 5 8 10 11 12 13 14 11 10 7 8 10 8 8 10 10
1 5 5 1 9 4 3 9 11 2 -1 12 6 7 11 7 9 7 7 7 5 6 6 8 6 6 4 4 7 6 7 8 9 5 3 4 2 3 4 3 2 3 4 6 6 6 8 9 10 12 11 9 7 7 7 9 8 8 7 8 9 9 8 7 8 9 8 8 7 7 7 8 9 9 9 8 7 8 8 5 4 6 8 9 10 11 11 13 15 15 14 13 13 12 13 12 10
-5 6 9 5 7 2 1 3 9 3 -1 11 6 6 11 10 10 8 9 5 2 5 8 7 4 4 3 6 7 5 6 9 10 5 3 3 2 4 4 5 3 3 4 6 7 7 9 9 11 11 8 5 4 7 9 10 10 8 8 7 7 7 7 8 8 8 9 9 8 8 8 8 7 8 10 8 7 9 8 7 7 7 7 8 9 10 10 12 14 14 13 14 14 13 12 12 12
1 10 10 6 5 6 10 4 3 -2 -3 10 7 6 10 10 11 9 10 9 6 3 4 7 7 3 3 8 7 6 7 9 11 5 4 3 3 5 4 5 4 4 6 7 7 7 9 10 11 9 5 3 5 8 9 9 8 7 6 5 6 6 7 7 8 8 9 9 8 7 5 6 6 8 8 7 7 8 8 8 8 8 8 8 8 8 9 9 10 10 10 10 12 12 12 12 11
9 11 6 5 1 3 10 6 4 -2 1 10 6 7 10 10 12 10 10 12 12 10 8 8 8 6 5 7 7 9 7 8 12 7 6 5 4 5 5 5 4 6 7 7 8 7 9 10 9 6 4 4 6 8 8 7 6 6 5 5 4 4 6 6 7 8 7 8 7 6 4 5 6 7 6 6 8 8 8 8 8 10 9 9 9 9 8 8 8 8 8 8 9 12 12 13 12
6 5 2 -3 -4 6 9 3 4 2 5 10 9 7 7 10 11 8 7 10 12 12 9 5 6 6 5 7 7 9 7 7 11 10 10 7 5 4 6 6 5 8 9 8 8 8 9 8 6 5 6 6 7 7 6 6 5 6 5 5 5 4 6 6 7 7 6 6 5 5 5 6 6 7 8 7 9 9 9 8 10 10 10 10 10 10 8 8 8 7 8 8 8 9 9 11 12
1 5 10 2 -3 8 9 5 6 6 6 8 11 8 6 8 7 6 5 6 8 6 6 6 7 5 7 12 9 6 6 8 10 12 12 9 7 4 5 8 9 10 9 8 8 10 10 6 4 6 8 7 5 5 5 6 5 7 7 7 7 7 7 7 8 7 6 6 5 5 5 6 6 7 9 8 7 8 8 7 8 8 8 8 8 8 8 7 8 8 9 9 9 8 8 9 9
1 2 11 11 3 3 4 8 9 7 8 6 8 7 5 6 4 6 4 5 8 6 6 8 7 6 8 11 8 7 7 7 9 12 11 7 8 6 6 10 11 11 8 9 9 11 9 3 4 6 7 5 5 5 5 6 5 6 7 8 8 8 8 8 8 7 6 6 6 7 6 6 7 7 8 8 7 6 6 6 6 5 4 5 5 6 7 7 7 7 7 7 7 7 6 6 6
-0 -7 -4 4 8 9 6 6 5 5 8 5 6 7 5 6 4 5 6 6 6 4 5 7 8 7 8 8 8 10 10 9 9 10 9 6 7 7 8 10 10 10 8 8 10 12 7 2 3 4 5 5 5 6 5 5 5 6 6 7 7 7 8 7 7 8 7 7 7 7 6 5 6 6 6 6 6 5 5 4 3 3 3 4 4 4 5 5 5 5 5 5 4 4 4 3 4
5 4 3 3 3 3 2 8 11 8 10 8 5 7 5 4 5 4 6 9 6 6 5 4 8 8 7 9 9 10 11 10 9 9 8 6 7 7 8 9 9 10 8 8 10 10 4 1 2 4 5 5 5 6 5 4 5 6 6 7 6 6 7 7 7 8 7 8 7 6 5 5 4 4 4 5 5 5 4 3 3 3 4 5 4 4 4 3 4 5 3 4 4 3 4 3 3
-6 4 7 5 5 2 -1 2 9 8 10 12 7 8 8 5 7 5 6 9 5 5 7 5 9 11 8 9 9 12 13 12 12 11 9 9 8 8 9 9 8 8 8 8 9 7 3 1 3 5 6 5 5 5 3 3 4 6 6 7 5 5 7 8 8 7 7 7 7 5 4 5 5 4 5 5 5 5 4 4 4 5 6 5 5 5 5 4 5 5 3 4 5 4 4 4 4
-9 3 3 4 8 5 4 -0 6 9 7 9 6 9 11 7 7 7 8 6 1 4 8 7 9 11 9 8 9 14 15 13 16 14 12 12 10 9 8 8 8 8 8 7 6 5 3 3 4 6 6 5 5 5 3 3 5 7 8 8 6 6 7 8 7 7 7 7 6 5 5 5 5 4 4 5 5 6 6 6 5 6 7 5 5 6 5 5 5 5 5 5 6 5 5 5 4
-3 -1 -12 11 16 0 7 5 5 4 4 12 6 6 9 10 9 6 9 6 2 7 9 9 10 11 10 9 10 13 13 12 15 12 9 9 7 7 7 7 7 7 7 5 5 5 4 4 5 5 5 6 6 4 3 4 7 8 8 8 7 7 7 6 6 6 6 5 6 6 5 5 5 4 3 4 5 5 6 6 5 5 5 5 5 5 4 4 4 5 5 4 5 5 6 6 4
18 6 -16 17 14 -1 11 11 14 6 7 13 3 7 8 9 11 4 8 8 6 10 10 11 11 11 10 10 11 10 11 12 11 8 7 7 8 8 8 7 7 6 5 4 5 5 5 5 5 6 6 6 6 3 4 6 7 7 7 7 7 7 6 5 5 5 5 5 5 4 4 4 4 4 4 5 6 6 5 5 5 5 4 5 5 4 4 4 5 5 5 5 4 5 6 5 5
2 1 -0 11 -9 2 21 15 20 3 4 14 0 8 10 8 10 4 7 6 6 9 9 11 11 12 10 10 11 7 12 12 8 8 7 8 9 9 8 6 5 5 5 5 5 5 5 5 5 7 8 7 5 3 5 7 6 5 6 6 6 7 6 5 5 4 4 5 5 4 4 4 4 5 6 6 6 6 6 6 5 5 4 4 4 5 6 5 5 5 4 5 4 4 5 5 5
-6 -2 12 15 -6 6 14 7 12 1 8 14 4 10 9 9 8 3 8 7 8 9 8 10 11 13 9 10 11 8 13 11 10 13 8 8 10 9 8 5 5 5 4 5 5 5 5 5 6 7 7 6 5 3 5 6 5 4 5 6 6 6 6 6 5 5 4 5 5 5 5 4 5 7 7 6 6 5 5 5 5 4 4 3 4 5 5 4 4 5 5 5 5 5 6 6 4
14 6 5 12 4 -0 -2 -4 3 13 16 3 4 13 6 10 6 2 9 8 9 9 7 7 9 14 10 11 11 8 14 13 14 16 10 10 10 8 7 5 5 5 5 6 5 5 6 5 6 6 6 6 4 3 4 5 5 4 4 5 6 6 6 6 6 5 5 5 5 5 5 5 6 7 6 5 5 5 4 5 5 4 4 4 5 6 5 4 2 3 5 4 5 5 6 6 5
10 3 -4 0 10 13 6 3 8 16 10 -2 8 11 2 7 4 1 9 10 8 7 8 6 7 14 11 10 8 7 15 13 13 16 14 14 11 9 7 5 6 6 5 5 4 5 6 6 5 4 4 4 3 2 3 4 6 6 5 5 6 6 6 6 6 6 5 5 5 5 5 5 6 6 5 4 4 4 4 4 4 4 5 4 4 5 5 3 2 3 4 3 4 6 6 7 6
9 4 -3 -4 9 17 8 10 22 13 1 5 12 6 1 4 3 3 5 7 7 4 7 7 8 12 11 11 7 5 11 11 9 13 14 13 11 9 8 7 7 6 6 5 5 6 5 5 4 3 3 3 2 1 2 4 7 9 7 5 5 6 6 5 5 5 5 5 5 6 6 4 4 5 4 4 3 3 3 2 3 3 3 3 3 4 5 4 2 3 4 3 4 6 7 7 7
6 5 4 5 2 5 6 10 18 10 1 8 11 5 3 2 7 11 6 5 6 4 6 6 8 12 11 12 9 4 6 8 7 7 10 9 9 8 7 8 6 6 6 5 5 6 6 5 4 4 3 3 3 2 2 3 6 9 9 7 6 6 6 5 5 5 5 5 5 6 6 4 3 3 3 3 3 3 3 2 3 3 2 3 3 3 3 2 1 3 5 3 4 7 7 7 7
5 10 8 12 1 -6 4 4 6 9 2 3 8 2 -1 2 7 11 11 7 4 4 6 4 6 11 12 10 11 7 4 5 5 5 8 7 6 7 7 6 6 6 5 5 6 5 6 6 5 4 3 3 3 3 3 3 6 7 7 7 6 7 7 6 5 5 5 4 5 5 4 4 4 5 5 3 3 4 4 4 3 3 3 2 2 2 1 2 2 3 4 3 4 6 7 8 7
6 10 5 10 11 4 3 -1 5 17 9 5 10 2 -1 2 -1 5 13 9 5 3 4 6 5 7 11 11 10 8 6 6 5 3 6 5 5 6 7 6 6 6 6 6 5 5 6 5 6 5 4 4 3 4 3 3 6 6 6 7 7 8 8 8 6 5 6 5 5 5 4 5 5 6 6 3 2 3 3 3 4 4 5 4 3 3 2 2 2 3 4 4 4 5 7 7 7
8 7 2 -4 4 13 9 3 6 14 10 4 10 7 4 3 -4 4 13 9 7 5 2 6 6 6 10 10 9 8 7 7 6 6 5 5 5 4 5 6 6 6 7 7 6 5 5 5 6 6 5 4 4 4 4 4 6 6 6 7 8 9 8 8 7 6 6 6 5 5 4 6 6 4 3 2 2 2 1 1 3 4 6 6 6 6 5 3 3 4 4 4 5 5 7 6 7
9 0 2 -5 -2 6 8 16 7 -9 -1 11 14 9 3 5 2 1 7 8 8 7 5 5 5 7 9 10 9 9 8 8 7 7 6 5 4 5 5 4 5 5 5 5 6 6 6 5 5 5 5 5 5 5 5 6 6 6 7 7 7 8 8 8 8 7 6 5 5 4 4 4 3 2 0 1 1 -0 -0 1 3 5 6 6 7 8 8 7 5 4 5 5 6 6 7 6 6
3 -11 3 6 4 -0 -3 18 7 -22 -4 19 15 8 3 7 7 -0 1 5 7 10 8 5 5 6 8 10 10 9 9 10 9 6 6 6 4 4 4 4 4 4 4 5 5 5 6 6 5 5 5 5 5 5 5 6 6 7 7 7 8 7 7 7 6 6 4 4 3 2 3 2 1 1 0 1 2 1 1 3 6 8 8 7 7 7 9 9 8 7 6 7 6 7 7 6 5
-0 -8 8 5 2 5 -0 13 12 -12 -11 -2 0 7 5 4 6 1 2 5 4 7 7 4 5 6 7 9 9 10 9 8 8 5 5 5 5 6 5 6 5 4 5 5 5 5 5 5 5 5 5 5 6 5 5 6 6 8 7 6 7 6 5 5 5 4 3 2 2 1 1 2 1 1 2 2 3 3 4 8 11 11 10 9 7 7 8 9 10 9 8 8 8 8 7 7 5
6 6 9 -2 -0 11 6 10 16 1 -6 4 15 19 13 8 7 3 3 5 3 5 7 6 6 5 5 7 7 9 9 7 6 5 7 6 5 6 5 6 6 7 8 6 5 5 4 4 4 5 5 6 6 5 5 6 6 7 7 6 6 5 5 4 3 2 2 2 1 1 0 1 3 3 4 4 4 7 10 12 13 11 9 7 7 7 8 10 11 10 9 9 9 7 8 9 7
9 7 -2 -1 6 9 6 6 13 12 8 16 21 18 16 9 6 6 2 2 6 6 7 7 7 5 4 5 7 7 7 7 5 4 6 7 5 5 6 6 7 8 9 9 8 7 6 6 6 7 7 6 6 6 5 5 6 6 6 6 5 5 4 3 3 2 2 2 0 1 2 4 6 6 7 8 9 12 13 12 10 9 8 7 7 7 9 10 11 11 10 10 9 8 9 9 8
6 7 3 3 -3 -2 7 5 5 8 1 5 7 6 14 10 4 8 4 3 5 4 5 7 6 5 6 6 6 7 7 6 5 5 7 7 6 5 5 6 6 7 8 8 9 10 11 11 10 9 8 7 6 6 6 5 6 6 5 5 4 4 3 2 3 2 1 2 3 4 6 7 8 10 12 12 12 11 9 9 10 11 12 11 10 9 9 10 10 10 9 8 8 7 7 8 7
3 6 13 7 -7 -1 12 5 3 4 -7 -6 -2 -4 4 10 6 5 7 6 1 -0 4 5 4 4 5 4 6 8 7 6 5 5 5 5 5 5 5 4 2 3 4 6 7 8 10 11 11 10 8 9 8 7 7 5 5 6 5 5 4 3 3 2 2 2 3 3 5 7 7 10 12 13 13 11 9 7 6 8 10 12 12 12 12 10 10 10 9 9 7 7 7 6 7 7 6
7 8 12 8 1 2 4 0 5 11 -1 -10 1 15 20 19 11 5 11 10 3 4 6 4 4 4 3 2 5 7 6 6 7 4 4 5 5 4 4 3 2 1 2 5 7 5 6 7 7 8 9 9 10 9 7 6 6 6 4 4 4 3 2 2 2 3 4 4 6 9 9 11 12 10 9 7 7 7 7 8 9 11 12 11 12 10 10 10 10 10 8 7 7 7 8 8 7
8 10 10 6 6 -0 -4 0 4 7 3 -4 8 21 14 13 14 7 8 11 7 5 4 4 6 3 3 3 2 3 3 4 6 4 4 3 3 4 3 2 2 2 3 5 6 4 4 5 5 7 9 9 10 10 8 8 7 5 5 5 3 3 3 3 5 4 4 6 8 9 9 10 9 6 6 8 8 8 8 8 8 8 8 9 10 10 10 10 9 10 11 11 11 11 11 11 11
8 12 8 4 8 1 -8 -2 5 4 -1 -2 3 -2 -8 5 20 13 6 8 10 7 2 2 6 5 6 6 3 2 1 4 7 7 6 4 3 3 2 4 4 3 5 5 5 5 4 4 5 7 8 8 8 8 8 8 7 6 6 6 4 4 5 4 4 4 5 9 9 8 9 9 7 6 8 9 8 8 9 9 7 4 3 5 6 7 6 4 3 4 6 9 10 10 10 10 11
9 11 5 2 7 7 -2 -3 12 16 4 1 -2 -2 11 19 19 17 8 1 3 12 14 5 4 8 7 6 6 4 3 7 12 10 7 7 9 8 6 4 4 3 4 6 7 6 4 3 4 5 5 6 6 7 8 7 7 8 6 5 5 4 5 5 6 7 9 9 8 7 8 8 6 7 8 8 6 7 8 8 6 4 5 7 7 8 8 6 6 5 5 6 6 8 9 9 8
15 11 4 4 4 8 7 -0 7 10 4 8 -0 -2 12 8 7 19 15 7 2 4 13 10 6 10 10 9 7 5 6 9 12 9 6 9 12 16 16 8 5 5 3 5 7 6 6 5 3 3 3 4 4 4 6 7 7 8 7 5 6 5 6 8 8 9 9 8 8 8 8 7 6 6 7 6 4 4 5 4 4 6 8 9 9 10 10 8 8 8 8 7 7 9 11 12 11
11 7 3 7 5 4 9 7 8 3 5 22 15 3 4 -2 11 25 14 14 14 2 -0 0 4 8 5 8 11 9 8 7 8 6 5 11 14 18 21 11 6 11 10 7 7 7 7 7 5 5 3 1 3 3 3 5 6 6 6 5 5 6 7 8 8 8 8 8 7 8 8 6 5 6 8 7 4 3 3 3 4 6 7 6 6 7 9 9 7 6 7 6 5 6 9 11 12
1 5 1 2 5 3 3 9 10 2 9 22 10 3 5 -1 8 16 10 12 11 7 10 5 6 9 3 8 16 14 7 5 9 8 4 9 15 18 19 10 1 6 14 14 12 10 9 10 9 7 6 2 1 4 4 5 6 5 5 5 4 6 6 5 8 10 8 7 7 7 7 6 5 6 9 8 6 3 3 3 4 4 5 5 4 5 8 9 7 6 6 3 1 2 4 7 9
7 14 12 -0 1 2 -3 3 8 5 7 10 6 11 14 4 -0 5 15 22 10 5 17 15 9 9 9 11 9 4 6 10 11 9 7 9 12 13 14 13 4 -0 8 15 14 15 15 15 13 9 8 7 4 5 6 7 8 7 6 4 4 7 5 4 7 9 8 7 7 8 7 5 4 6 9 8 7 5 3 3 3 3 5 5 4 5 7 8 6 5 5 4 5 6 4 6 11
13 23 19 1 -1 2 -3 -3 1 7 8 5 9 14 14 6 -0 2 13 24 18 6 10 16 10 8 12 11 6 10 21 25 17 9 10 8 5 9 17 22 18 8 10 15 16 19 19 16 15 11 8 7 7 6 6 7 7 6 6 4 4 7 5 3 5 8 8 7 7 7 6 4 5 7 8 7 6 5 4 4 5 5 7 7 5 6 8 8 6 6 6 6 8 6 3 4 10
23 23 13 8 9 4 4 1 -6 -0 7 9 10 8 10 9 3 4 8 15 19 10 10 16 13 14 16 9 7 11 11 14 16 14 11 6 3 9 15 17 18 14 11 15 16 17 18 16 15 13 12 10 8 7 5 6 5 5 5 4 4 8 5 2 5 8 8 8 6 5 5 5 7 8 6 6 5 5 6 6 6 6 8 9 9 7 7 6 5 6 6 5 5 5 5 9 11
14 6 6 23 21 3 6 3 -11 -4 3 1 6 9 7 5 6 7 7 20 26 17 19 17 11 19 21 13 11 4 -2 6 17 16 4 -0 4 8 10 11 13 13 9 8 11 11 13 16 16 15 15 15 14 12 10 8 8 6 6 6 7 10 6 1 5 10 9 8 5 4 5 6 6 6 6 7 7 7 7 5 3 6 10 9 8 7 5 5 5 6 7 5 7 9 8 13 17
8 6 15 32 26 7 11 4 -13 2 13 -4 -6 9 11 8 13 8 0 10 8 3 13 9 3 13 13 12 8 1 13 16 6 8 4 3 11 8 5 9 8 7 5 2 4 9 12 13 15 17 17 17 17 16 15 14 14 13 9 9 9 8 4 2 7 11 9 7 7 7 7 6 5 5 7 8 9 8 6 2 1 6 8 5 4 6 4 5 5 5 7 5 5 8 8 18 30
20 17 5 13 26 18 16 13 -5 -3 11 5 -5 0 8 11 16 8 -0 6 7 5 -1 -16 -4 11 4 9 4 -2 16 -3 -22 10 17 1 7 6 -2 1 1 1 2 2 4 8 11 11 14 17 15 15 15 14 16 16 17 16 10 9 8 5 3 3 8 11 8 7 8 8 8 7 6 5 5 7 9 11 11 7 5 6 6 4 3 5 5 4 4 5 8 7 8 13 14 24 35
22 21 -6 -17 8 23 21 17 9 2 -1 -1 2 5 4 5 13 16 8 5 11 9 -16 -24 11 20 -0 8 9 1 3 -21 -17 35 32 -2 2 12 6 -1 -1 3 4 5 4 2 7 11 13 16 13 13 15 13 15 16 16 15 11 8 7 5 5 6 10 11 7 7 8 8 9 9 9 7 7 7 8 11 12 8 6 5 5 5 3 5 6 5 5 8 8 8 18 29 26 23 22
13 24 18 -7 -11 11 31 24 10 15 14 -3 -5 7 9 2 3 15 19 10 6 8 6 15 34 25 6 9 5 -4 -7 -17 -4 23 18 7 4 0 -0 -2 0 7 4 2 1 -2 4 8 10 16 12 10 14 14 14 13 13 13 11 11 10 10 10 11 11 10 7 8 8 7 8 9 8 9 10 11 9 8 7 5 6 8 7 7 6 6 8 6 7 11 9 15 37 43 27 16 10
Height
5893 5894 5895 5895 5894 5893 5893 5893 5894 5895 5894 5894 5894 5894 5895 5895 5895 5895 5895 5895 5895 5895 5895 5894 5894 5895 5895 5895 5894 5895 5894 5894 5894 5895 5895 5895 5895 5895 5896 5896 5897 5898 5898 5898 5899 5899 5899 5899 5899 5898 5898 5897 5898 5899 5900 5902 5903 5904 5904 5905 5906 5906 5906 5906 5907 5907 5907 5908 5907 5907 5908 5908 5908 5908 5907 5907 5907 5907 5907 5907 5907 5907 5907 5907 5906 5906 5906 5907 5907 5906 5906 5907 5907 5908 5907 5907 5907
5894 5895 5896 5896 5896 5894 5894 5895 5895 5894 5894 5895 5895 5896 5896 5896 5896 5896 5896 5896 5896 5896 5896 5896 5896 5895 5895 5896 5896 5895 5895 5895 5895 5896 5896 5897 5897 5898 5898 5898 5898 5899 5899 5899 5900 5900 5900 5900 5900 5900 5900 5900 5901 5902 5903 5904 5905 5905 5906 5906 5907 5907 5907 5907 5908 5908 5908 5908 5908 5908 5909 5909 5908 5908 5908 5908 5907 5907 5907 5907 5908 5908 5907 5907 5907 5907 5907 5907 5907 5907 5907 5907 5908 5908 5908 5908 5907
5895 5896 5897 5898 5898 5896 5895 5896 5896 5895 5896 5897 5897 5896 5897 5897 5897 5897 5897 5897 5897 5897 5897 5897 5897 5896 5896 5896 5897 5896 5897 5897 5896 5897 5897 5898 5899 5899 5899 5900 5900 5900 5900 5901 5901 5901 5902 5902 5902 5902 5903 5903 5904 5904 5905 5905 5906 5906 5907 5907 5908 5908 5908 5909 5909 5909 5909 5909 5909 5909 5909 5909 5909 5908 5908 5908 5908 5908 5908 5908 5908 5908 5908 5908 5908 5908 5908 5908 5908 5908 5908 5908 5909 5909 5909 5909 5908
5896 5897 5897 5898 5898 5898 5896 5896 5896 5895 5896 5897 5898 5898 5898 5899 5898 5898 5898 5898 5898 5898 5898 5898 5898 5898 5897 5897 5897 5898 5898 5898 5898 5898 5899 5899 5899 5900 5900 5901 5901 5902 5902 5902 5902 5902 5903 5903 5903 5904 5905 5905 5905 5906 5906 5906 5907 5907 5908 5908 5908 5909 5909 5910 5910 5910 5910 5910 5910 5910 5910 5909 5909 5909 5908 5908 5908 5908 5908 5908 5908 5908 5908 5908 5909 5909 5908 5909 5909 5909 5909 5909 5909 5909 5909 5909 5909
5898 5898 5898 5899 5898 5898 5897 5896 5895 5894 5897 5899 5899 5899 5899 5899 5900 5899 5899 5899 5899 5899 5899 5899 5899 5899 5899 5899 5899 5899 5899 5899 5899 5899 5900 5900 5900 5901 5901 5901 5902 5902 5903 5903 5903 5903 5904 5904 5905 5905 5905 5906 5906 5906 5906 5907 5907 5908 5908 5909 5909 5910 5910 5911 5911 5911 5911 5910 5910 5910 5910 5910 5909 5909 5909 5909 5909 5909 5909 5909 5909 5909 5909 5909 5909 5909 5909 5909 5909 5909 5909 5909 5909 5910 5910 5909 5909
5899 5900 5899 5898 5898 5897 5897 5897 5896 5898 5899 5901 5900 5900 5900 5901 5901 5901 5901 5900 5900 5900 5900 5900 5900 5900 5901 5901 5900 5900 5901 5901 5901 5900 5900 5901 5901 5901 5901 5902 5902 5903 5903 5903 5904 5904 5905 5905 5905 5905 5906 5906 5907 5907 5907 5908 5908 5909 5909 5910 5910 5911 5911 5911 5911 5911 5911 5911 5911 5910 5910 5910 5910 5910 5909 5909 5910 5910 5910 5910 5910 5910 5910 5910 5910 5910 5910 5910 5910 5909 5909 5909 5909 5910 5910 5910 5909
5900 5901 5900 5898 5898 5898 5897 5897 5900 5903 5901 5901 5902 5901 5902 5902 5902 5902 5901 5901 5901 5901 5901 5901 5901 5901 5902 5902 5902 5902 5902 5902 5902 5902 5901 5902 5902 5902 5903 5903 5903 5903 5904 5904 5904 5905 5905 5906 5906 5906 5907 5907 5908 5908 5908 5909 5909 5909 5910 5910 5911 5911 5912 5912 5912 5911 5911 5911 5911 5911 5911 5911 5910 5910 5910 5910 5910 5910 5910 5910 5910 5910 5910 5910 5910 5910 5910 5910 5910 5910 5910 5910 5910 5910 5910 5910 5910
5900 5900 5900 5899 5900 5899 5898 5898 5903 5905 5903 5903 5903 5903 5903 5903 5903 5903 5902 5902 5902 5902 5902 5902 5902 5902 5902 5902 5902 5902 5902 5902 5902 5902 5902 5903 5903 5903 5904 5904 5904 5904 5905 5905 5906 5906 5907 5907 5907 5908 5908 5908 5909 5909 5909 5910 5910 5910 5911 5911 5912 5912 5912 5912 5912 5911 5911 5912 5911 5911 5911 5911 5911 5910 5911 5911 5911 5911 5910 5910 5910 5910 5910 5910 5910 5910 5910 5910 5910 5910 5910 5910 5910 5910 5910 5910 5910
5900 5899 5899 5900 5901 5900 5899 5902 5905 5905 5905 5905 5904 5904 5904 5904 5903 5903 5903 5903 5903 5903 5902 5902 5903 5903 5903 5902 5902 5903 5903 5903 5903 5903 5903 5903 5904 5904 5904 5905 5905 5905 5906 5906 5907 5907 5908 5908 5908 5908 5909 5909 5909 5909 5910 5910 5911 5911 5911 5912 5912 5912 5912 5912 5912 5912 5912 5912 5912 5912 5911 5911 5911 5911 5911 5911 5912 5911 5911 5911 5911 5911 5910 5910 5910 5910 5910 5910 5910 5910 5910 5910 5910 5910 5910 5910 5909
5901 5901 5899 5899 5900 5900 5902 5906 5906 5904 5905 5905 5905 5905 5904 5904 5904 5904 5904 5903 5903 5904 5903 5903 5903 5903 5903 5903 5902 5902 5903 5903 5903 5903 5904 5904 5905 5905 5905 5905 5906 5906 5906 5907 5907 5908 5908 5909 5909 5909 5909 5910 5910 5910 5910 5911 5911 5912 5912 5912 5912 5913 5913 5913 5912 5912 5912 5912 5912 5912 5912 5912 5912 5912 5912 5912 5912 5912 5911 5912 5912 5912 5911 5910 5910 5910 5910 5910 5910 5910 5910 5910 5910 5910 5910 5909 5909
5902 5902 5900 5900 5899 5901 5907 5909 5906 5904 5905 5905 5905 5905 5904 5905 5904 5904 5904 5904 5903 5904 5904 5903 5903 5903 5903 5903 5902 5903 5903 5904 5904 5904 5904 5905 5905 5905 5906 5906 5906 5907 5907 5908 5908 5908 5909 5909 5910 5910 5910 5910 5911 5911 5911 5912 5912 5912 5912 5913 5913 5913 5913 5913 5913 5912 5913 5913 5913 5913 5912 5912 5913 5913 5913 5913 5913 5912 5912 5912 5912 5912 5912 5911 5910 5910 5910 5910 5910 5910 5910 5910 5910 5910 5910 5909 5909
5903 5903 5902 5903 5900 5903 5910 5909 5906 5904 5903 5905 5905 5905 5905 5905 5905 5904 5904 5904 5904 5904 5904 5904 5904 5903 5904 5904 5903 5903 5903 5903 5904 5904 5905 5905 5905 5905 5906 5906 5907 5907 5908 5908 5909 5909 5910 5910 5910 5910 5911 5911 5911 5912 5912 5912 5913 5913 5913 5913 5914 5914 5914 5914 5913 5913 5913 5913 5913 5913 5913 5913 5914 5914 5914 5914 5914 5913 5913 5913 5913 5913 5912 5911 5911 5910 5910 5910 5910 5910 5910 5910 5910 5910 5910 5909 5909
5904 5903 5904 5904 5900 5903 5911 5910 5907 5905 5903 5904 5905 5905 5905 5905 5905 5904 5904 5904 5903 5904 5904 5904 5904 5904 5904 5904 5904 5904 5904 5904 5904 5904 5905 5905 5905 5905 5906 5906 5907 5908 5908 5909 5909 5910 5910 5910 5911 5911 5911 5912 5912 5913 5913 5913 5914 5914 5914 5914 5914 5914 5915 5914 5914 5913 5913 5914 5914 5914 5914 5914 5915 5915 5915 5915 5915 5914 5914 5914 5914 5913 5913 5912 5911 5911 5911 5911 5911 5911 5911 5910 5910 5910 5910 5909 5909
5905 5905 5905 5904 5901 5902 5910 5910 5908 5907 5903 5904 5904 5905 5905 5904 5905 5904 5904 5904 5903 5903 5903 5903 5903 5903 5903 5903 5904 5904 5904 5904 5905 5905 5905 5906 5906 5906 5906 5907 5908 5908 5909 5909 5910 5910 5910 5911 5911 5911 5912 5912 5913 5913 5914 5914 5914 5914 5914 5914 5915 5915 5915 5915 5914 5914 5914 5914 5914 5914 5915 5915 5916 5916 5916 5916 5916 5916 5915 5915 5914 5914 5913 5912 5912 5912 5912 5911 5912 5911 5911 5911 5911 5910 5910 5910 5910
5906 5906 5904 5904 5903 5903 5908 5908 5909 5908 5903 5903 5904 5904 5904 5904 5904 5904 5904 5904 5903 5903 5903 5903 5903 5903 5903 5903 5904 5904 5904 5904 5905 5905 5905 5906 5906 5907 5907 5908 5908 5909 5909 5909 5910 5910 5911 5911 5912 5912 5912 5913 5913 5914 5914 5914 5914 5914 5914 5915 5915 5916 5916 5915 5915 5915 5915 5915 5915 5915 5915 5916 5916 5917 5917 5917 5917 5917 5916 5915 5915 5914 5914 5913 5913 5913 5912 5912 5913 5912 5912 5912 5912 5911 5911 5911 5911
5906 5905 5904 5905 5904 5904 5907 5907 5909 5908 5903 5903 5903 5903 5904 5903 5903 5903 5903 5903 5902 5902 5902 5903 5902 5902 5902 5903 5903 5904 5904 5904 5905 5905 5905 5906 5907 5907 5907 5908 5908 5909 5909 5910 5910 5911 5911 5912 5912 5913 5913 5914 5914 5914 5915 5915 5915 5915 5915 5915 5916 5916 5917 5916 5916 5916 5916 5916 5916 5916 5916 5917 5917 5917 5918 5918 5918 5917 5917 5916 5916 5915 5915 5914 5914 5914 5914 5914 5914 5913 5913 5913 5913 5912 5912 5912 5912
5906 5905 5905 5906 5905 5905 5906 5907 5908 5906 5903 5903 5903 5903 5903 5903 5903 5903 5903 5903 5902 5902 5902 5902 5902 5902 5902 5902 5903 5903 5904 5904 5905 5905 5906 5906 5907 5907 5908 5908 5908 5909 5909 5910 5911 5911 5912 5912 5913 5913 5914 5914 5914 5915 5915 5915 5915 5916 5916 5916 5917 5917 5918 5918 5917 5917 5917 5917 5917 5917 5917 5918 5918 5919 5919 5918 5918 5918 5917 5917 5917 5916 5916 5916 5915 5915 5915 5915 5915 5915 5914 5914 5914 5914 5914 5913 5913
5905 5905 5905 5905 5905 5905 5907 5907 5907 5905 5904 5904 5903 5903 5903 5903 5903 5902 5902 5902 5902 5902 5902 5902 5902 5902 5902 5902 5903 5903 5904 5904 5905 5905 5906 5906 5907 5907 5908 5908 5908 5909 5909 5910 5911 5912 5913 5913 5914 5914 5914 5914 5915 5915 5916 5916 5916 5917 5917 5917 5918 5918 5919 5919 5918 5918 5918 5918 5919 5919 5918 5919 5919 5919 5919 5919 5919 5919 5919 5918 5918 5918 5917 5917 5917 5917 5917 5917 5917 5916 5916 5915 5915 5915 5915 5914 5914
5905 5905 5905 5905 5904 5905 5907 5907 5906 5906 5905 5904 5904 5903 5903 5903 5903 5902 5902 5902 5902 5903 5903 5902 5902 5902 5901 5901 5902 5903 5903 5904 5905 5905 5905 5906 5906 5907 5908 5908 5909 5909 5910 5911 5911 5912 5913 5914 5914 5914 5915 5915 5916 5916 5916 5917 5917 5917 5917 5918 5918 5919 5920 5920 5920 5919 5919 5920 5920 5920 5920 5920 5920 5920 5920 5920 5920 5920 5920 5920 5919 5919 5919 5918 5918 5918 5918 5918 5917 5917 5917 5917 5917 5916 5916 5916 5915
5905 5905 5905 5905 5905 5906 5907 5907 5906 5906 5905 5904 5904 5904 5904 5904 5903 5903 5903 5903 5903 5903 5903 5902 5902 5902 5901 5901 5902 5903 5903 5903 5904 5905 5905 5906 5906 5907 5908 5908 5909 5909 5910 5911 5912 5913 5914 5914 5915 5915 5915 5916 5916 5917 5917 5918 5918 5918 5918 5919 5919 5920 5920 5920 5921 5921 5921 5921 5921 5921 5921 5921 5920 5920 5920 5920 5921 5921 5921 5921 5920 5920 5920 5920 5919 5919 5919 5919 5918 5918 5918 5918 5918 5918 5918 5917 5916
5905 5905 5905 5905 5905 5906 5906 5906 5906 5905 5905 5905 5904 5904 5904 5904 5904 5904 5903 5903 5903 5903 5903 5902 5902 5902 5902 5902 5902 5903 5903 5903 5904 5905 5906 5906 5907 5907 5908 5908 5909 5910 5910 5911 5912 5914 5915 5915 5915 5916 5916 5917 5917 5918 5918 5918 5919 5919 5919 5920 5920 5921 5921 5921 5922 5922 5922 5922 5922 5922 5922 5922 5921 5921 5921 5921 5922 5922 5922 5922 5921 5921 5921 5920 5920 5920 5920 5920 5920 5919 5919 5919 5919 5918 5918 5918 5917
5906 5906 5906 5906 5905 5906 5906 5906 5905 5905 5905 5905 5904 5905 5904 5904 5904 5904 5904 5903 5903 5903 5903 5902 5902 5902 5902 5902 5902 5903 5903 5903 5904 5905 5906 5906 5907 5907 5908 5908 5909 5910 5911 5911 5912 5914 5915 5915 5916 5917 5917 5918 5918 5919 5919 5919 5920 5920 5920 5920 5921 5921 5922 5922 5922 5923 5923 5923 5923 5923 5923 5923 5922 5923 5923 5923 5923 5923 5923 5922 5922 5922 5922 5922 5922 5922 5921 5921 5921 5920 5920 5920 5919 5919 5918 5918 5918
5906 5906 5906 5906 5906 5906 5906 5905 5905 5905 5905 5905 5904 5905 5905 5905 5905 5904 5904 5903 5902 5902 5903 5902 5902 5902 5902 5902 5902 5902 5902 5902 5904 5905 5906 5906 5906 5907 5908 5908 5909 5910 5911 5911 5913 5914 5915 5916 5916 5917 5918 5918 5919 5919 5920 5920 5920 5920 5921 5921 5922 5922 5922 5923 5923 5924 5924 5923 5923 5923 5924 5924 5923 5924 5924 5924 5924 5924 5923 5923 5923 5924 5924 5924 5923 5923 5922 5922 5921 5921 5920 5920 5920 5919 5918 5918 5918
5908 5907 5907 5906 5906 5906 5906 5905 5906 5905 5904 5904 5904 5905 5905 5905 5905 5904 5904 5904 5902 5902 5903 5902 5902 5902 5902 5902 5902 5902 5902 5903 5903 5905 5906 5906 5906 5907 5908 5908 5909 5910 5911 5912 5913 5914 5915 5916 5917 5918 5918 5919 5919 5920 5920 5921 5921 5921 5921 5922 5922 5922 5923 5924 5924 5924 5924 5924 5924 5924 5924 5925 5924 5924 5925 5925 5925 5925 5925 5924 5924 5925 5925 5925 5924 5923 5923 5922 5922 5921 5921 5921 5920 5920 5919 5919 5919
5910 5909 5908 5907 5906 5906 5906 5906 5906 5906 5904 5904 5905 5905 5905 5905 5905 5904 5904 5904 5902 5902 5903 5902 5902 5902 5902 5902 5902 5902 5902 5903 5904 5905 5906 5906 5907 5907 5908 5909 5910 5911 5912 5912 5913 5914 5915 5916 5917 5918 5918 5919 5920 5920 5921 5921 5921 5921 5922 5922 5923 5923 5923 5924 5925 5925 5925 5925 5925 5925 5926 5926 5925 5925 5926 5926 5926 5927 5926 5926 5926 5926 5926 5926 5925 5924 5924 5923 5923 5922 5922 5921 5921 5921 5920 5920 5920
5911 5911 5909 5907 5908 5907 5907 5906 5905 5906 5905 5904 5905 5905 5905 5905 5905 5904 5904 5904 5902 5901 5903 5902 5902 5902 5902 5902 5903 5903 5902 5903 5904 5905 5906 5906 5907 5907 5908 5909 5910 5911 5912 5913 5914 5914 5915 5916 5917 5918 5918 5919 5920 5921 5921 5921 5921 5922 5922 5923 5923 5923 5924 5924 5925 5926 5926 5926 5926 5927 5927 5927 5927 5927 5927 5927 5927 5927 5927 5927 5927 5926 5926 5926 5925 5925 5925 5924 5924 5923 5923 5922 5922 5922 5922 5921 5921
5910 5911 5909 5907 5907 5907 5907 5907 5906 5905 5905 5904 5904 5905 5904 5904 5905 5904 5903 5903 5902 5902 5902 5902 5902 5902 5902 5903 5903 5903 5903 5903 5904 5904 5906 5906 5907 5908 5908 5910 5910 5911 5912 5913 5914 5914 5915 5916 5917 5918 5919 5920 5920 5921 5921 5922 5922 5922 5923 5923 5924 5924 5925 5925 5926 5926 5926 5927 5927 5928 5928 5928 5928 5928 5928 5927 5927 5927 5927 5927 5927 5926 5926 5926 5926 5925 5925 5925 5924 5924 5924 5923 5922 5922 5922 5922 5922
5907 5911 5912 5909 5907 5907 5906 5906 5906 5906 5906 5905 5904 5905 5904 5904 5904 5903 5903 5903 5902 5902 5902 5902 5902 5902 5903 5903 5903 5903 5903 5903 5904 5905 5906 5907 5907 5908 5909 5910 5910 5911 5912 5913 5914 5915 5916 5917 5918 5918 5919 5920 5921 5921 5922 5922 5923 5923 5924 5924 5925 5925 5925 5926 5926 5927 5927 5928 5928 5929 5929 5929 5929 5928 5928 5928 5928 5927 5927 5927 5927 5927 5927 5927 5926 5925 5925 5925 5924 5924 5924 5924 5923 5923 5923 5923 5922
5902 5907 5911 5910 5909 5908 5907 5908 5909 5908 5908 5905 5904 5905 5904 5904 5904 5903 5904 5903 5902 5902 5902 5903 5902 5903 5903 5903 5903 5904 5904 5903 5904 5905 5906 5907 5908 5908 5909 5910 5911 5911 5912 5913 5914 5915 5916 5917 5918 5919 5920 5921 5921 5922 5922 5923 5923 5924 5924 5925 5925 5926 5926 5927 5927 5927 5928 5928 5929 5929 5929 5929 5929 5929 5929 5928 5928 5928 5927 5927 5927 5927 5927 5927 5926 5926 5925 5925 5924 5924 5924 5924 5923 5923 5923 5923 5923
5899 5901 5905 5907 5908 5908 5908 5909 5909 5909 5908 5905 5904 5904 5904 5904 5904 5903 5903 5903 5903 5902 5903 5903 5903 5903 5903 5903 5904 5904 5904 5904 5904 5905 5906 5907 5908 5909 5909 5910 5911 5912 5913 5914 5915 5916 5917 5918 5919 5920 5920 5921 5922 5922 5923 5923 5924 5924 5925 5925 5926 5926 5927 5928 5928 5928 5928 5929 5929 5929 5929 5929 5929 5929 5929 5929 5929 5928 5928 5927 5927 5927 5927 5927 5927 5926 5926 5925 5925 5925 5924 5924 5923 5923 5923 5923 5923
5898 5899 5901 5903 5905 5907 5909 5908 5906 5908 5907 5903 5903 5904 5904 5903 5903 5903 5903 5903 5903 5902 5902 5903 5903 5903 5903 5904 5904 5904 5905 5905 5904 5905 5906 5906 5908 5909 5910 5911 5911 5912 5913 5914 5915 5916 5917 5918 5919 5920 5921 5921 5922 5922 5923 5923 5924 5924 5925 5925 5926 5927 5927 5928 5928 5928 5928 5928 5929 5929 5929 5929 5929 5929 5929 5929 5929 5928 5928 5927 5927 5927 5927 5927 5927 5926 5926 5925 5925 5925 5924 5924 5923 5923 5923 5923 5923
5896 5899 5901 5902 5903 5906 5910 5907 5906 5908 5905 5903 5903 5904 5903 5903 5903 5903 5903 5903 5903 5902 5903 5903 5903 5903 5904 5904 5904 5904 5905 5905 5905 5905 5906 5907 5908 5909 5910 5911 5912 5913 5914 5915 5916 5917 5918 5919 5919 5920 5921 5921 5922 5922 5923 5923 5924 5924 5925 5925 5926 5927 5927 5928 5928 5928 5928 5928 5928 5929 5929 5929 5929 5929 5929 5929 5928 5928 5928 5927 5927 5927 5927 5927 5927 5927 5926 5925 5924 5924 5924 5923 5923 5922 5922 5922 5922
5896 5898 5900 5903 5904 5906 5909 5906 5906 5907 5903 5902 5903 5903 5903 5903 5903 5903 5902 5903 5902 5902 5903 5903 5903 5903 5904 5904 5904 5904 5905 5905 5906 5906 5907 5907 5908 5909 5911 5912 5912 5913 5914 5915 5916 5917 5918 5919 5919 5920 5921 5921 5922 5922 5923 5923 5924 5924 5925 5925 5926 5927 5927 5927 5928 5928 5928 5928 5928 5929 5929 5929 5928 5928 5929 5928 5928 5928 5928 5927 5927 5927 5927 5926 5926 5926 5926 5925 5924 5924 5923 5923 5922 5922 5922 5921 5921
5895 5896 5899 5902 5904 5907 5908 5905 5904 5904 5902 5902 5902 5902 5902 5902 5902 5902 5902 5902 5902 5902 5902 5902 5903 5903 5903 5904 5904 5904 5905 5905 5906 5907 5907 5908 5909 5910 5911 5912 5913 5914 5915 5916 5917 5917 5918 5919 5919 5920 5921 5921 5922 5922 5923 5923 5923 5924 5925 5925 5926 5927 5927 5927 5927 5928 5928 5928 5929 5929 5929 5929 5929 5928 5928 5928 5927 5928 5928 5927 5926 5926 5926 5926 5925 5925 5925 5924 5924 5923 5923 5922 5922 5921 5921 5920 5920
5894 5896 5898 5900 5903 5907 5908 5904 5902 5902 5901 5901 5902 5902 5902 5901 5901 5901 5901 5901 5902 5901 5902 5902 5902 5903 5903 5903 5904 5904 5905 5905 5906 5907 5907 5908 5909 5910 5911 5912 5913 5914 5915 5916 5917 5917 5918 5919 5919 5920 5921 5921 5922 5922 5923 5923 5923 5924 5925 5925 5926 5926 5927 5927 5927 5927 5928 5929 5929 5929 5929 5929 5929 5928 5928 5928 5927 5927 5927 5927 5926 5925 5925 5925 5925 5925 5924 5923 5923 5922 5921 5921 5920 5920 5920 5919 5919
5894 5897 5899 5901 5902 5906 5907 5905 5902 5901 5901 5900 5900 5901 5901 5901 5901 5900 5901 5901 5901 5901 5901 5901 5902 5902 5903 5903 5904 5904 5904 5905 5906 5906 5907 5908 5909 5910 5911 5912 5913 5914 5915 5916 5916 5917 5918 5918 5919 5920 5920 5921 5922 5922 5922 5923 5923 5924 5924 5925 5925 5926 5926 5927 5927 5927 5928 5929 5929 5928 5928 5928 5928 5928 5928 5927 5927 5927 5927 5926 5925 5925 5924 5924 5924 5923 5923 5922 5921 5920 5920 5919 5919 5919 5918 5918 5918
5893 5895 5899 5902 5904 5905 5905 5904 5901 5899 5901 5900 5899 5901 5900 5900 5901 5899 5899 5900 5900 5900 5901 5901 5902 5902 5903 5903 5903 5904 5904 5905 5906 5907 5907 5908 5909 5910 5911 5911 5913 5913 5914 5915 5916 5917 5917 5918 5919 5919 5920 5921 5921 5922 5922 5923 5923 5924 5924 5925 5925 5925 5926 5926 5927 5927 5927 5928 5928 5928 5928 5928 5928 5928 5928 5927 5927 5926 5926 5925 5924 5923 5923 5923 5922 5922 5921 5920 5920 5919 5918 5918 5918 5917 5917 5917 5917
5891 5892 5897 5901 5903 5905 5903 5904 5901 5897 5900 5901 5898 5900 5899 5899 5900 5898 5898 5899 5899 5900 5900 5900 5901 5902 5902 5903 5903 5903 5904 5905 5906 5907 5907 5907 5908 5909 5910 5911 5912 5913 5914 5914 5915 5916 5917 5917 5918 5919 5920 5920 5921 5921 5922 5922 5923 5924 5924 5924 5925 5925 5926 5926 5926 5927 5927 5927 5928 5928 5928 5928 5927 5927 5927 5927 5926 5925 5924 5923 5923 5922 5922 5921 5921 5920 5919 5919 5918 5918 5918 5917 5917 5916 5916 5916 5916
5888 5889 5893 5897 5900 5903 5903 5904 5902 5895 5897 5901 5898 5899 5899 5898 5898 5897 5897 5898 5898 5899 5899 5900 5900 5901 5901 5902 5903 5904 5905 5905 5905 5906 5907 5907 5908 5909 5910 5911 5912 5912 5913 5914 5915 5915 5916 5917 5917 5918 5919 5919 5920 5920 5921 5922 5923 5923 5924 5924 5924 5925 5925 5926 5926 5926 5926 5926 5927 5927 5927 5927 5927 5926 5926 5926 5924 5923 5922 5921 5921 5920 5920 5919 5919 5918 5918 5917 5917 5917 5917 5916 5916 5916 5915 5915 5914
5885 5887 5889 5892 5896 5900 5902 5904 5904 5896 5894 5899 5898 5897 5897 5897 5897 5896 5896 5897 5898 5898 5898 5899 5899 5900 5901 5902 5903 5904 5904 5904 5905 5906 5907 5907 5908 5908 5909 5910 5911 5912 5913 5913 5914 5915 5915 5916 5917 5917 5918 5918 5919 5920 5921 5922 5922 5923 5923 5923 5924 5924 5925 5925 5925 5925 5926 5926 5926 5926 5927 5926 5926 5925 5925 5924 5922 5921 5920 5919 5919 5919 5918 5918 5917 5917 5917 5916 5916 5916 5915 5915 5915 5915 5914 5913 5913
5882 5885 5887 5890 5893 5897 5900 5903 5905 5898 5893 5896 5897 5894 5894 5895 5895 5895 5895 5895 5896 5897 5897 5898 5898 5899 5900 5901 5902 5902 5903 5903 5904 5905 5906 5907 5907 5907 5908 5909 5910 5911 5912 5913 5913 5914 5914 5915 5916 5917 5917 5918 5918 5919 5920 5921 5922 5922 5923 5923 5923 5924 5924 5925 5925 5925 5925 5925 5926 5926 5926 5925 5924 5924 5923 5921 5920 5919 5919 5919 5918 5918 5917 5917 5916 5916 5915 5915 5915 5914 5914 5914 5913 5913 5913 5912 5911
5880 5881 5884 5888 5892 5895 5898 5900 5903 5899 5893 5892 5894 5892 5892 5893 5893 5894 5894 5893 5894 5895 5896 5896 5897 5898 5899 5900 5901 5902 5902 5902 5903 5904 5905 5906 5906 5907 5907 5908 5909 5910 5911 5912 5912 5913 5914 5914 5915 5916 5916 5917 5917 5918 5919 5920 5921 5922 5922 5922 5923 5923 5924 5924 5924 5924 5924 5925 5925 5925 5924 5923 5923 5922 5921 5920 5919 5918 5918 5918 5918 5917 5916 5916 5915 5915 5914 5914 5914 5913 5913 5912 5912 5911 5911 5911 5910
5877 5880 5883 5886 5889 5893 5895 5897 5900 5898 5893 5891 5892 5891 5891 5891 5892 5892 5892 5892 5892 5893 5894 5895 5896 5897 5898 5900 5900 5901 5901 5902 5903 5903 5904 5905 5905 5906 5907 5907 5908 5909 5910 5910 5911 5912 5913 5914 5914 5915 5915 5916 5916 5917 5918 5920 5920 5921 5921 5921 5922 5922 5923 5923 5923 5923 5924 5924 5924 5923 5923 5922 5921 5920 5920 5919 5918 5918 5918 5917 5917 5916 5915 5915 5915 5914 5914 5913 5913 5912 5911 5911 5910 5909 5909 5909 5908
5874 5879 5883 5884 5885 5889 5891 5894 5896 5896 5893 5890 5889 5888 5888 5888 5889 5890 5891 5891 5891 5890 5892 5893 5894 5895 5897 5898 5899 5900 5900 5901 5902 5903 5903 5903 5904 5905 5906 5906 5907 5908 5908 5909 5910 5911 5912 5913 5913 5914 5914 5915 5916 5917 5918 5919 5919 5920 5920 5920 5921 5922 5922 5922 5922 5922 5923 5922 5922 5922 5921 5920 5920 5919 5919 5918 5918 5917 5917 5917 5916 5916 5915 5914 5914 5913 5913 5912 5912 5911 5910 5910 5909 5908 5908 5907 5907
5872 5878 5881 5883 5884 5885 5888 5891 5893 5894 5893 5889 5887 5886 5884 5884 5886 5887 5888 5888 5888 5888 5889 5891 5892 5893 5894 5896 5897 5898 5899 5899 5900 5902 5902 5902 5903 5903 5904 5904 5905 5906 5908 5909 5909 5910 5911 5911 5912 5913 5913 5914 5915 5916 5917 5917 5918 5919 5919 5920 5920 5920 5921 5921 5921 5921 5921 5921 5920 5920 5919 5919 5919 5918 5918 5917 5917 5917 5917 5916 5916 5915 5915 5914 5914 5913 5912 5912 5911 5910 5910 5909 5908 5907 5906 5906 5905
5871 5876 5877 5881 5883 5884 5885 5887 5889 5892 5889 5887 5887 5885 5881 5882 5883 5884 5884 5884 5885 5887 5888 5888 5889 5891 5892 5894 5895 5895 5896 5898 5899 5901 5901 5902 5902 5901 5901 5902 5903 5905 5906 5907 5908 5909 5909 5910 5911 5911 5912 5913 5914 5915 5916 5916 5917 5917 5918 5918 5919 5919 5919 5919 5920 5920 5920 5919 5919 5918 5918 5918 5918 5917 5917 5917 5917 5917 5916 5916 5916 5915 5915 5914 5914 5913 5912 5911 5910 5910 5909 5908 5907 5906 5905 5904 5903
5868 5872 5874 5877 5880 5882 5883 5883 5885 5886 5882 5883 5887 5885 5880 5878 5879 5880 5881 5882 5884 5886 5886 5887 5887 5888 5890 5891 5892 5893 5895 5897 5898 5899 5900 5901 5902 5901 5900 5900 5901 5903 5904 5905 5907 5907 5908 5908 5909 5910 5910 5911 5912 5913 5914 5915 5916 5916 5916 5917 5917 5918 5918 5918 5918 5918 5918 5918 5917 5917 5917 5917 5917 5917 5916 5916 5916 5916 5916 5916 5915 5915 5914 5913 5912 5912 5911 5910 5909 5908 5908 5907 5906 5905 5903 5902 5901
5864 5867 5870 5873 5875 5879 5880 5880 5881 5879 5876 5879 5884 5886 5881 5875 5875 5878 5879 5880 5883 5884 5884 5885 5885 5886 5888 5889 5890 5891 5893 5894 5895 5897 5898 5899 5901 5901 5901 5900 5899 5900 5902 5903 5905 5905 5906 5907 5907 5908 5909 5910 5911 5912 5913 5914 5914 5914 5915 5915 5916 5916 5916 5916 5917 5917 5916 5916 5915 5915 5916 5916 5916 5916 5915 5915 5915 5915 5915 5914 5914 5913 5912 5912 5911 5910 5910 5909 5908 5907 5906 5905 5904 5902 5901 5900 5899
5858 5861 5865 5869 5871 5873 5874 5875 5875 5873 5874 5876 5880 5883 5879 5873 5874 5877 5877 5878 5880 5882 5882 5883 5884 5884 5885 5886 5887 5889 5891 5891 5892 5893 5895 5896 5899 5900 5900 5899 5898 5898 5900 5901 5902 5903 5904 5905 5906 5906 5907 5907 5909 5910 5911 5912 5912 5913 5913 5914 5914 5914 5914 5915 5915 5915 5914 5914 5914 5914 5915 5915 5915 5915 5914 5914 5914 5914 5913 5912 5912 5911 5911 5910 5909 5908 5907 5906 5906 5905 5903 5902 5901 5899 5898 5897 5896
5851 5855 5859 5862 5864 5866 5867 5869 5870 5870 5872 5875 5878 5879 5875 5873 5874 5874 5875 5876 5877 5879 5880 5881 5882 5882 5883 5883 5885 5887 5888 5889 5890 5892 5894 5896 5898 5899 5898 5898 5896 5896 5897 5899 5900 5902 5903 5904 5904 5905 5905 5905 5906 5908 5909 5910 5910 5911 5911 5912 5912 5912 5913 5913 5913 5913 5912 5912 5912 5913 5914 5914 5914 5914 5913 5913 5912 5912 5911 5911 5910 5909 5909 5908 5906 5906 5904 5903 5903 5902 5901 5899 5898 5896 5895 5894 5892
5847 5852 5855 5856 5858 5860 5862 5864 5866 5868 5871 5873 5875 5872 5869 5872 5874 5873 5873 5874 5875 5876 5878 5879 5879 5880 5881 5881 5883 5884 5885 5887 5889 5891 5893 5894 5895 5896 5895 5895 5894 5893 5895 5896 5898 5899 5901 5902 5902 5903 5903 5904 5904 5905 5907 5908 5908 5909 5909 5910 5910 5910 5911 5911 5911 5911 5911 5910 5911 5912 5913 5913 5912 5912 5912 5911 5911 5910 5909 5909 5908 5907 5906 5905 5904 5903 5902 5901 5900 5899 5898 5896 5895 5893 5892 5891 5889
5844 5849 5850 5850 5854 5857 5859 5862 5865 5868 5869 5868 5869 5867 5867 5872 5874 5873 5872 5872 5873 5874 5876 5877 5876 5877 5878 5878 5879 5882 5883 5885 5886 5889 5891 5891 5892 5893 5893 5893 5892 5891 5892 5894 5896 5897 5898 5899 5899 5900 5900 5901 5902 5903 5904 5905 5906 5906 5907 5908 5908 5908 5909 5909 5909 5909 5909 5909 5909 5910 5911 5911 5911 5911 5910 5909 5909 5909 5908 5907 5906 5905 5904 5903 5902 5901 5899 5898 5897 5896 5895 5893 5892 5890 5889 5888 5886
5841 5843 5843 5846 5853 5855 5856 5859 5863 5866 5864 5862 5863 5865 5868 5870 5871 5871 5870 5870 5872 5872 5872 5874 5874 5874 5876 5875 5876 5879 5882 5883 5884 5886 5888 5888 5889 5890 5891 5891 5890 5889 5890 5892 5894 5895 5896 5896 5897 5897 5898 5899 5900 5901 5902 5903 5903 5904 5905 5905 5906 5906 5907 5907 5907 5907 5907 5907 5908 5909 5909 5909 5909 5909 5908 5908 5907 5907 5906 5905 5904 5903 5902 5901 5900 5898 5897 5896 5895 5893 5892 5891 5889 5887 5886 5884 5883
5838 5838 5839 5845 5850 5850 5851 5855 5859 5860 5857 5857 5861 5863 5866 5867 5867 5868 5868 5868 5869 5869 5869 5871 5871 5871 5873 5874 5874 5875 5879 5882 5882 5884 5884 5885 5886 5887 5888 5888 5888 5888 5889 5891 5892 5893 5894 5895 5895 5895 5896 5896 5897 5898 5899 5900 5901 5902 5902 5903 5903 5904 5904 5905 5905 5905 5905 5906 5906 5907 5908 5908 5908 5908 5907 5906 5905 5904 5904 5903 5902 5901 5900 5899 5898 5896 5895 5894 5892 5891 5889 5888 5886 5884 5882 5880 5879
5833 5835 5838 5842 5843 5842 5844 5848 5852 5853 5851 5853 5858 5860 5861 5862 5864 5866 5866 5867 5868 5867 5867 5868 5869 5870 5870 5873 5873 5872 5876 5879 5881 5882 5883 5883 5884 5885 5885 5886 5887 5887 5888 5889 5891 5892 5893 5893 5893 5893 5893 5894 5894 5895 5896 5897 5898 5899 5900 5901 5901 5901 5902 5902 5903 5903 5903 5904 5905 5906 5906 5906 5906 5906 5905 5904 5903 5902 5901 5901 5900 5899 5898 5897 5895 5894 5892 5891 5889 5887 5886 5884 5882 5880 5878 5876 5875
5829 5831 5833 5836 5837 5837 5840 5843 5845 5847 5848 5851 5855 5855 5855 5858 5862 5865 5865 5866 5866 5865 5864 5865 5868 5870 5870 5872 5873 5871 5872 5877 5880 5881 5882 5882 5882 5882 5883 5884 5885 5885 5886 5888 5889 5890 5891 5891 5891 5892 5891 5892 5892 5893 5894 5895 5896 5897 5897 5898 5898 5899 5899 5900 5901 5901 5901 5903 5904 5905 5905 5905 5904 5904 5903 5902 5901 5900 5899 5898 5897 5897 5896 5894 5893 5892 5890 5888 5886 5884 5882 5880 5879 5877 5874 5872 5871
5823 5825 5826 5829 5832 5833 5836 5839 5841 5842 5843 5847 5850 5850 5852 5856 5860 5863 5865 5865 5863 5863 5864 5863 5865 5869 5870 5871 5874 5872 5869 5873 5877 5878 5879 5880 5881 5881 5881 5881 5881 5882 5883 5885 5887 5888 5889 5890 5890 5890 5890 5890 5890 5891 5892 5893 5893 5894 5895 5896 5896 5897 5897 5898 5899 5899 5900 5901 5903 5903 5903 5903 5902 5901 5901 5900 5898 5898 5897 5896 5895 5895 5894 5892 5890 5889 5887 5885 5883 5881 5879 5876 5875 5873 5871 5869 5868
5819 5821 5822 5825 5828 5830 5831 5833 5836 5838 5839 5842 5845 5846 5848 5854 5858 5859 5862 5863 5860 5860 5863 5862 5860 5864 5866 5868 5872 5874 5870 5870 5875 5877 5877 5878 5879 5880 5881 5881 5880 5881 5881 5882 5884 5886 5887 5888 5888 5888 5888 5889 5889 5890 5890 5891 5891 5892 5893 5893 5894 5895 5896 5897 5897 5897 5898 5900 5901 5901 5900 5900 5900 5899 5898 5897 5896 5895 5895 5894 5893 5893 5892 5890 5888 5887 5886 5883 5881 5879 5876 5874 5872 5870 5869 5868 5867